Погода в Баликпапане

Индонезия     1°13′31″S   116°53′27″E
темп.,
°C
ветер,
м/с
пор.,
м/с
влажн.,
%
обл.,
%
осадки,
мм/ч
давл.,
гПа
погр.,
м
2 марта, вт
вт223:00+28всв2274100 0.1 1011158
02:00+27ссз1177100 0.1 1009147
05:00+26с1181100 0.0 100997
08:00+27ссз228186 0.1 1011171
11:00+29св347248 0.9 1011667
14:00+30св557568 2.2 1008654
17:00+29всв567862 0.5 1007468
20:00+28всв588179 0.8 1009492
3 марта, ср
ср323:00+28св5884100 2.1 1010490
02:00+27ссв4789100 13.1 1009344
05:00+27ссв4782100 5.7 1009305
08:00+27с4683100 6.0 1011344
11:00+29с467299 2.6 1012690
14:00+31св236086 2.6 1008874
17:00+29в227455 3.1 1007159
20:00+27ю127965 8.1 1010159
4 марта, чт
чт423:00+26зюз468895 6.7 1012233
02:00+25з348797 7.4 1010183
05:00+24зсз1288100 0.3 101098
08:00+25сз1185100 0.3 1012197
11:00+27зюз1276100 0.0 1013472
14:00+28вюв2470100 0.0 1009479
17:00+28всв4773100 0.0 1008363
20:00+27ссв587397 0.1 1010401
5 марта, пт
пт523:00+25с358175 0.1 1011344
02:00+25ссз348673 0.1 1010243
05:00+24с2388100 0.1 1010140
08:00+25с358792 0.1 1012287
11:00+30св466933 0.1 1012985
14:00+30всв557117 0.9 1008710
17:00+29всв69710 0.8 1007547
20:00+28св610791 1.8 1010473
6 марта, сб
сб623:00+27св5883100 3.7 1011400
02:00+26ссв478492 4.5 1009400
05:00+25с488782 1.1 1009394
08:00+26с598379 1.2 1011527
11:00+30ссв476297 0.0 10111086
14:00+32всв566178 0.1 10081075
17:00+30св812672 0.3 1007518
20:00+29св7127616 0.3 1009625